This is the latest recevied weather packets stored in our database for station/object 9W2UHF-10. If no packets are shown the sender has not sent any weather packets the latest 1 day(s).
| Time | Temp. | Humidity | Pressure | Rain* | Wind** | Luminosity | Snow |
|---|---|---|---|---|---|---|---|
| 1777916973 | 30° C | 71% | 1012 hPa | - | - | - | - |
| 1777915773 | 30° C | 71% | 1012.3 hPa | - | - | - | - |
| 1777914573 | 30.56° C | 70% | 1012.6 hPa | - | - | - | - |
| 1777913373 | 30.56° C | 70% | 1012.6 hPa | - | - | - | - |
| 1777912173 | 30.56° C | 70% | 1012.8 hPa | - | - | - | - |
| 1777911014 | 30.56° C | 70% | 1012.8 hPa | - | - | - | - |
| 1777910973 | 30.56° C | 70% | 1012.8 hPa | - | - | - | - |
| 1777909773 | 30° C | 69% | 1012.9 hPa | - | - | - | - |
| 1777908573 | 30.56° C | 67% | 1013 hPa | - | - | - | - |
| 1777907373 | 30.56° C | 68% | 1012.9 hPa | - | - | - | - |
| 1777906173 | 30.56° C | 69% | 1012.7 hPa | - | - | - | - |
| 1777904973 | 30.56° C | 70% | 1012.5 hPa | - | - | - | - |
| 1777903773 | 30.56° C | 69% | 1012.2 hPa | - | - | - | - |
| 1777902573 | 30.56° C | 69% | 1012 hPa | - | - | - | - |
| 1777901372 | 30.56° C | 68% | 1012.2 hPa | - | - | - | - |
| 1777900670 | 31.11° C | 67% | 1010.3 hPa | - | - | - | - |
| 1777900546 | 31.11° C | 67% | 1010.3 hPa | - | - | - | - |
| 1777900276 | 31.11° C | 67% | 1010.3 hPa | - | - | - | - |
| 1777900172 | 30.56° C | 67% | 1011.9 hPa | - | - | - | - |
| 1777899870 | 31.11° C | 67% | 1009.9 hPa | - | - | - | - |
| 1777899324 | 31.11° C | 68% | 1009.6 hPa | - | - | - | - |
| 1777898972 | 30.56° C | 69% | 1011.8 hPa | - | - | - | - |
| 1777898403 | 31.11° C | 70% | 1009.3 hPa | - | - | - | - |
| 1777898004 | 31.11° C | 67% | 1009.6 hPa | - | - | - | - |
| 1777897772 | 30.56° C | 69% | 1011.2 hPa | - | - | - | - |
* Rain since midnight (hover to see other rain measurements)
** Current wind speed in m/s (hover to see current wind gust speed)